User: anonymous   Login
Location: UBC Liquid-Mirror Observatory
(49.2876°N, 122.5728°W)
Time: 16:16:42
(UTC-07:00)
Language:

KITSAT 1 - Orbit

View from above orbital plane
View from above orbital plane
View from above satellite
View from above satellite

Ground track
Ground track

The orbit data is extracted from the following two-line orbital elements,

1 22077U 92052B   15185.12452762 -.00000062  00000-0  23328-6 0  9998
2 22077 066.0852 022.2661 0012100 309.7261 137.5992 12.86506131 75537
Epoch (UTC): 04 July 2015 02:59:19
Eccentricity: 0.0012100
inclination: 66.0852°
perigee height: 1306 km
apogee height: 1325 km
right ascension of ascending node: 22.2661°
argument of perigee: 309.7261°
revolutions per day: 12.86506131
mean anomaly at epoch: 137.5992°
orbit number at epoch: 7553

The dashed part of the orbit path shows where the satellite is in the earth's shadow,  

DLR